Wind_Speed
27 28 28 29 28 28 27 26 24 23 23 23 23 23 23 22 22 24 22 20 20 20 20 20 18 18 20 20 19 20 21 23 23 22 21 20 20 20 20 20 20 19 18 16 15 15 14 14 13 11 10 10 10 9 9 10 10 10 10 10 10 8 7 7 7 8 14 17 18 18 16 15 15 14 13 13 13 14 15 16 16 15 14 14 13
27 27 28 29 30 29 29 26 24 23 22 23 24 24 23 22 22 22 21 21 24 25 24 22 22 23 24 22 21 21 22 23 23 22 22 21 21 21 21 20 20 19 17 15 15 14 14 14 13 11 11 11 9 7 7 7 7 7 8 8 8 7 7 8 8 8 11 16 18 17 15 15 15 14 12 12 13 14 15 16 16 14 13 14 14
27 26 26 27 29 30 29 26 24 24 24 24 24 24 23 23 22 23 23 23 25 25 25 24 24 26 27 26 23 22 22 23 22 22 22 22 21 21 21 21 19 18 15 14 14 14 15 16 15 14 12 9 5 4 3 3 3 4 5 5 5 6 6 7 8 8 10 13 15 17 15 15 16 15 13 13 13 14 16 17 16 13 12 13 13
27 27 25 26 28 28 27 26 25 24 24 24 24 24 23 22 22 22 22 23 22 22 23 24 24 24 26 26 25 23 22 22 22 22 22 22 22 23 22 20 19 18 17 16 15 15 15 14 11 10 10 9 6 5 4 2 1 0 1 2 2 3 4 4 7 9 10 11 13 16 17 17 16 15 14 14 13 14 15 16 15 12 11 12 13
27 27 26 25 26 27 26 25 25 25 25 24 24 24 24 23 21 19 18 19 21 23 23 23 23 22 24 25 24 23 23 23 23 23 23 24 24 24 22 21 20 20 19 19 16 13 13 12 10 9 10 9 8 6 4 3 1 0 0 1 1 1 2 3 5 7 10 11 12 14 16 17 17 15 14 13 14 14 14 14 13 12 12 14 16
27 27 26 26 26 27 27 26 26 25 24 24 23 24 24 24 23 20 18 20 20 21 22 23 22 22 23 23 23 23 23 24 25 24 25 25 24 23 22 22 21 20 19 18 15 12 13 14 11 10 9 8 7 5 4 2 1 2 3 4 5 6 6 7 8 9 11 12 12 13 15 16 16 15 12 11 13 14 14 14 13 12 13 16 18
28 27 26 26 27 27 27 28 27 26 25 24 23 24 23 23 22 21 21 22 21 22 24 24 23 23 23 22 22 21 21 23 25 25 25 24 24 25 24 23 22 19 18 17 13 13 14 13 11 10 9 7 6 5 4 3 3 4 6 7 8 9 10 11 11 12 13 14 14 13 14 15 15 15 13 11 12 13 14 16 15 12 12 15 16
29 28 26 26 27 28 28 28 27 26 26 25 24 24 24 24 23 22 22 24 25 25 27 27 25 24 24 24 22 20 20 21 23 24 24 24 24 25 25 24 22 19 17 15 14 15 14 12 11 9 7 6 5 4 4 3 4 6 7 8 8 9 10 10 11 12 13 14 14 14 14 14 15 15 13 11 13 13 12 13 13 12 12 14 14
28 28 26 27 29 30 28 27 26 27 27 27 26 26 25 25 25 24 23 24 24 24 26 28 26 25 26 26 23 21 20 21 22 22 23 23 23 22 22 22 21 19 16 14 15 15 13 12 11 9 7 6 5 4 4 4 5 5 5 6 7 8 10 10 11 12 13 14 15 15 15 14 15 15 13 11 13 15 14 11 10 10 12 14 14
28 27 28 30 31 29 27 26 26 26 27 28 28 28 27 26 25 24 22 23 23 23 24 27 27 26 26 27 25 23 22 21 21 20 20 21 22 21 22 23 21 18 17 16 16 15 13 13 10 8 6 6 5 5 5 5 4 3 3 4 5 7 9 10 12 13 13 13 14 14 13 13 15 15 13 12 12 13 15 13 9 8 10 13 13
29 30 31 32 30 28 27 26 26 27 27 28 28 28 28 26 25 23 22 23 24 24 25 27 28 26 26 26 26 25 24 23 21 19 18 19 19 21 24 25 23 19 18 19 19 17 15 13 11 8 7 6 7 7 6 5 4 4 4 5 6 7 8 9 10 12 13 13 14 14 13 13 15 15 13 13 12 10 10 11 9 7 9 11 10
29 31 32 30 28 28 28 27 28 28 29 29 29 29 28 26 25 24 24 24 25 24 26 29 28 27 26 27 27 27 26 25 24 23 21 20 19 21 24 25 23 21 20 20 19 17 15 13 11 8 7 7 8 8 7 6 6 6 7 8 9 10 10 10 9 9 11 13 14 15 14 15 16 16 14 11 9 8 9 9 8 7 9 12 12
30 32 31 28 27 28 29 28 29 29 29 29 29 28 27 27 26 25 25 25 25 25 28 29 28 27 27 27 28 28 28 27 26 26 25 22 20 22 24 24 24 22 21 20 19 17 16 14 11 9 8 9 10 9 8 7 7 9 10 11 11 11 11 11 10 9 9 10 12 13 13 14 14 15 13 10 9 10 12 12 11 9 9 12 13
30 32 31 28 28 29 29 29 29 29 28 28 27 26 27 28 27 25 25 25 26 27 29 30 29 28 28 27 27 28 29 29 27 27 25 22 21 23 25 25 23 22 21 21 19 19 18 15 13 12 11 11 11 9 8 9 10 12 12 13 13 12 12 13 13 11 10 9 10 11 11 12 13 13 13 12 12 13 15 14 12 10 10 11 13
27 30 30 28 28 29 30 30 30 29 28 26 25 25 26 26 26 25 25 26 27 28 29 29 29 28 28 28 28 28 29 28 27 26 24 22 22 24 25 25 23 23 23 21 19 20 19 17 15 14 13 12 12 11 11 12 13 14 15 15 15 15 14 14 14 13 13 13 13 13 12 12 13 13 13 12 11 12 14 13 10 8 10 12 13
23 28 30 29 28 30 31 31 31 29 27 26 25 25 25 25 25 25 25 26 26 27 28 29 29 29 29 29 29 29 29 28 27 25 24 23 23 25 25 25 26 26 24 21 21 21 20 18 16 15 14 14 14 13 13 14 15 17 17 17 17 17 17 15 14 14 15 15 15 13 12 12 12 13 13 11 9 9 11 12 13 13 13 13 14
20 25 29 30 30 30 31 31 30 29 27 25 25 25 26 25 24 24 24 25 26 28 29 29 29 29 29 29 29 30 30 28 26 25 24 25 26 26 27 26 26 26 24 22 24 24 22 20 18 17 17 16 15 14 14 16 17 18 19 20 20 19 19 17 15 16 16 15 15 14 13 13 14 15 14 12 10 10 10 13 15 15 13 11 12
19 23 28 31 30 30 31 31 29 28 25 25 26 25 24 22 21 22 23 24 27 29 29 28 28 28 28 29 30 31 31 29 27 26 27 28 28 29 28 26 26 26 24 24 27 26 23 21 20 19 19 18 16 15 16 17 18 19 21 22 22 22 21 19 17 18 17 16 15 15 16 16 17 18 17 16 15 14 14 16 17 15 13 12 13
18 22 27 30 30 30 30 29 28 26 25 24 25 23 20 19 20 22 24 25 27 27 26 25 25 26 28 30 31 31 32 30 29 29 30 31 31 31 29 28 28 28 27 27 28 26 24 22 21 20 20 18 17 17 17 18 20 21 22 24 24 25 24 22 19 19 18 17 17 17 16 17 17 18 18 18 18 18 19 20 18 15 14 15 14
16 20 25 26 26 26 27 27 27 26 25 25 24 20 18 19 20 22 24 25 25 25 24 24 25 26 27 28 30 31 32 31 30 30 31 32 33 33 32 31 31 31 30 29 29 27 26 25 23 21 20 19 18 18 18 19 19 19 20 22 24 25 25 22 20 19 19 19 18 18 17 17 17 17 17 17 17 18 18 17 15 14 15 15 15
9 16 21 21 21 22 24 26 26 25 25 25 22 19 19 20 22 23 24 24 23 23 23 24 24 25 26 26 27 28 29 30 30 30 31 33 33 33 34 33 33 33 31 30 31 31 30 28 25 22 21 20 19 19 19 17 16 15 16 18 21 23 23 21 20 19 19 20 19 19 19 18 17 18 17 16 15 15 15 14 13 12 13 13 13
3 9 16 19 19 20 22 24 25 25 25 25 22 20 20 21 22 22 23 23 23 23 23 23 23 23 23 24 26 27 28 29 29 29 31 32 34 34 35 35 34 33 31 30 31 32 31 29 26 22 21 20 20 19 17 14 12 12 13 15 18 21 21 20 18 18 19 20 20 20 21 20 20 19 18 17 15 14 13 13 12 12 13 13 13
2 5 9 13 16 18 20 23 24 23 22 21 21 21 21 21 21 21 22 23 23 24 24 22 21 21 22 23 25 26 28 29 30 30 31 32 33 35 35 35 35 33 32 31 31 31 31 29 25 23 22 21 19 18 16 13 11 11 11 13 16 18 19 19 18 18 19 20 21 23 24 23 23 21 19 17 15 14 13 12 13 14 14 14 14
0 2 4 6 9 11 13 16 19 20 19 19 19 19 20 19 20 20 20 21 23 24 24 22 21 22 23 24 25 26 28 29 30 31 31 32 32 34 35 35 35 34 33 32 31 30 29 27 25 24 23 21 20 19 16 13 12 11 11 12 14 16 18 19 19 19 20 22 23 25 26 26 25 24 21 17 14 13 13 14 15 15 14 15 16
6 4 1 2 4 5 6 8 11 14 16 17 18 19 20 20 21 21 21 22 24 24 23 22 22 23 24 25 26 28 29 30 31 31 31 31 31 32 33 34 35 35 34 32 31 29 28 27 25 25 23 22 21 19 17 15 14 12 12 12 14 16 18 20 21 22 23 24 26 28 28 27 25 23 19 15 13 13 14 15 16 15 15 16 17
8 8 7 4 1 1 3 5 8 10 12 15 17 18 19 20 21 22 23 24 24 23 23 22 21 22 24 25 26 27 27 28 30 31 30 30 30 30 32 33 34 35 34 33 30 28 27 26 25 24 24 24 23 21 19 17 15 13 13 15 16 18 19 21 22 23 24 26 27 28 27 26 24 21 17 14 14 15 15 17 17 15 15 15 16
8 8 8 7 6 4 3 1 1 3 5 8 12 15 18 20 21 22 23 23 22 22 23 23 22 22 23 25 26 27 26 27 27 27 28 29 29 30 31 32 33 35 35 34 31 29 28 26 25 25 25 24 23 21 19 18 17 16 17 17 19 20 21 22 23 24 25 26 26 26 26 25 23 20 15 13 15 16 17 18 16 15 14 13 15
5 6 7 7 6 5 5 5 5 6 5 4 3 4 9 15 20 22 22 22 23 23 24 25 25 25 26 27 26 25 26 28 29 29 29 30 30 30 32 33 33 34 35 35 34 31 28 25 24 24 24 23 22 22 21 21 20 20 19 20 20 21 22 22 23 24 25 25 24 25 25 23 21 18 14 13 15 17 18 18 16 14 13 12 14
7 6 5 5 5 4 4 4 5 7 7 7 6 5 4 6 13 20 23 23 23 24 24 25 26 27 28 29 27 25 26 29 31 32 33 32 32 32 33 33 33 33 33 35 35 33 28 26 25 26 26 25 24 24 24 24 24 23 22 21 20 21 22 22 23 25 24 23 22 22 22 21 19 17 15 16 19 20 19 18 16 14 13 12 15
5 7 7 6 4 4 5 6 7 8 9 9 9 7 6 5 6 12 18 21 23 23 24 25 25 26 27 29 29 28 29 30 30 30 30 32 33 33 33 33 32 32 32 33 32 30 28 28 28 29 29 27 26 27 27 27 27 26 24 22 20 21 22 23 24 24 23 21 20 20 20 19 19 18 17 19 22 23 21 18 16 15 14 13 16
2 4 5 7 7 8 9 9 9 10 11 11 11 11 9 8 6 6 9 13 16 18 20 23 24 24 25 27 29 30 31 32 30 29 29 30 31 32 33 32 30 30 32 30 28 27 28 29 30 31 30 29 29 30 30 29 28 27 25 23 21 22 23 24 24 23 23 22 21 21 21 21 21 20 20 22 24 25 22 18 16 15 14 13 15
6 4 3 4 5 7 8 9 10 12 12 11 11 10 10 10 9 7 6 8 9 10 11 14 17 20 23 26 28 29 30 30 30 30 29 29 30 30 31 30 29 29 30 28 27 28 30 31 30 31 31 30 31 32 32 30 29 28 26 24 23 23 23 24 23 23 23 23 22 22 23 22 22 22 22 23 25 25 22 20 17 15 14 14 15
10 8 7 6 6 6 6 7 8 9 10 10 10 9 9 10 11 12 11 11 11 10 9 10 12 15 19 22 26 29 31 30 29 28 28 28 29 29 28 29 29 30 29 27 26 28 30 30 30 31 31 31 33 33 32 31 30 29 27 26 24 23 22 21 21 22 23 23 22 23 23 23 23 23 23 25 26 26 24 22 18 15 14 14 15
13 12 11 10 8 7 5 5 6 7 8 9 9 9 9 10 11 12 14 15 16 17 17 15 14 15 16 17 21 26 30 31 29 28 27 27 28 28 27 27 28 28 28 28 28 29 29 30 31 32 32 32 33 33 31 31 30 29 28 26 25 24 22 22 21 22 22 22 22 23 23 24 24 24 24 25 26 26 25 21 18 16 16 15 15
14 15 14 11 9 7 7 6 5 6 7 8 9 10 10 11 11 13 16 17 18 20 22 23 21 19 17 17 18 22 26 30 31 30 28 28 28 27 26 25 25 25 26 28 30 31 31 31 32 34 34 34 34 33 32 32 31 29 28 26 25 25 24 23 22 22 22 22 23 23 23 24 25 24 24 25 26 27 25 22 19 18 17 15 15
8 12 14 13 12 12 11 10 9 9 9 9 11 12 12 12 11 13 16 18 20 22 24 24 23 22 21 20 20 22 26 29 32 33 32 30 28 27 25 26 26 27 29 31 32 33 33 33 34 34 35 34 34 34 34 33 32 31 29 27 27 27 26 24 23 23 23 23 24 23 23 24 25 25 25 26 27 27 25 23 21 19 17 16 15
3 7 11 13 14 15 14 14 13 13 12 12 13 14 14 13 13 13 14 17 19 20 21 21 21 21 21 21 21 23 27 29 29 33 35 32 28 27 28 29 30 30 31 33 34 34 35 35 35 35 35 35 35 35 34 34 33 32 30 29 29 28 27 25 24 23 23 24 24 24 24 24 25 26 27 27 26 26 24 22 21 20 18 17 15
4 6 8 11 13 15 16 16 16 16 15 14 14 14 14 14 14 14 14 16 17 18 19 20 20 21 23 22 21 22 26 28 26 28 31 31 30 30 31 32 32 32 33 35 36 36 36 37 37 37 37 36 36 36 35 34 33 32 30 29 30 29 28 26 25 25 25 25 25 25 25 25 25 26 27 28 27 26 25 24 22 21 20 18 17
4 5 6 8 10 12 13 14 15 15 15 14 14 14 15 14 14 14 15 16 16 16 18 20 21 23 24 22 18 18 22 24 23 25 28 30 31 32 32 33 33 34 34 35 36 37 38 38 38 38 38 37 37 36 35 35 34 32 30 30 30 29 28 27 27 26 26 26 26 26 26 25 25 26 27 28 27 26 25 25 24 23 22 21 19
3 4 5 6 8 8 9 10 11 11 12 12 12 13 14 14 15 16 16 16 16 17 18 19 22 24 25 22 18 19 21 22 22 25 27 30 33 34 34 34 35 36 36 37 37 37 38 39 39 38 38 37 37 36 36 35 34 32 31 31 30 29 28 27 26 25 26 27 27 27 26 26 26 26 26 27 27 27 26 25 25 24 23 21 18
5 5 6 6 7 7 8 9 10 10 11 12 13 13 14 15 16 16 16 17 17 18 19 20 22 24 24 22 21 22 22 21 22 26 28 29 33 36 37 37 38 38 38 39 38 38 38 39 39 38 37 37 36 36 36 35 34 33 32 32 32 31 29 27 25 24 25 26 27 27 26 26 27 26 26 27 28 27 26 25 24 23 22 21 18
7 8 8 8 7 8 8 10 11 11 12 14 15 16 16 17 17 17 17 17 18 19 20 21 22 23 23 23 22 22 22 21 23 25 27 28 31 35 37 40 42 42 41 41 41 40 40 40 39 38 37 36 36 36 35 35 35 34 34 34 33 32 29 27 26 26 26 27 28 28 26 26 27 26 25 26 28 28 28 26 25 24 23 21 19
9 10 10 9 9 9 11 12 13 13 15 16 17 18 18 18 19 18 18 18 18 19 20 21 22 23 23 23 22 22 23 23 22 22 24 27 29 32 36 40 42 43 43 43 42 41 40 39 39 39 38 38 37 37 36 36 36 35 34 34 33 31 29 27 27 27 28 29 30 29 27 26 28 28 26 27 28 29 28 27 26 24 24 22 19
9 9 9 9 9 10 12 13 14 15 16 17 18 18 18 18 19 19 19 19 19 20 20 21 22 22 22 23 22 23 24 24 22 21 24 29 30 32 35 39 41 42 42 42 42 41 40 39 39 39 38 38 37 37 36 36 35 34 33 33 32 31 30 29 28 28 29 30 31 30 28 29 30 29 27 28 29 29 29 28 26 26 24 22 20
6 6 7 8 10 12 13 14 15 16 17 17 18 18 18 18 18 18 19 20 20 21 21 22 22 21 21 23 23 23 24 25 23 24 29 32 32 32 35 37 39 41 42 42 42 41 40 40 39 39 38 38 38 37 36 36 35 33 32 32 32 32 31 30 29 29 30 31 31 31 30 30 31 30 29 29 30 30 30 29 27 26 25 23 22
4 5 7 9 11 12 14 15 17 18 19 19 20 20 20 19 18 18 19 20 21 21 22 23 24 23 22 23 24 23 23 23 23 24 28 30 30 32 34 35 36 38 40 41 40 40 40 40 40 39 39 38 38 37 37 36 35 34 33 33 33 33 32 31 31 31 31 30 31 32 32 31 31 30 30 30 30 31 31 29 28 27 27 25 23
5 6 8 9 11 13 15 17 18 19 19 20 21 21 21 21 20 19 20 20 21 21 22 23 24 24 24 24 24 23 23 23 23 24 25 26 26 28 31 33 34 35 37 37 37 37 38 39 40 40 39 39 38 38 38 36 35 34 33 32 32 32 31 32 33 34 32 30 31 33 33 31 29 29 30 30 31 31 31 30 28 28 28 26 24
6 7 8 9 11 14 16 17 18 19 19 20 21 22 22 21 20 19 20 20 20 21 22 23 24 24 24 24 23 23 23 24 24 25 26 27 25 25 27 30 32 34 35 34 33 34 35 37 38 39 39 39 38 37 37 36 35 33 31 30 30 30 31 32 33 33 32 32 33 34 32 29 27 27 29 30 31 32 31 31 30 30 29 27 25
7 7 8 10 12 14 16 18 19 19 20 21 22 21 20 19 19 19 19 19 20 21 22 23 23 24 24 24 23 21 21 22 23 25 26 27 27 26 26 27 30 31 33 32 32 31 32 33 35 37 38 38 38 36 35 35 34 33 31 30 30 31 32 33 33 33 32 32 33 33 31 28 26 26 27 29 31 32 32 32 32 31 31 29 27
7 7 9 11 12 14 16 18 19 21 22 22 21 20 18 18 19 20 20 20 20 21 22 23 23 24 24 24 23 20 19 19 21 23 25 27 28 27 26 26 26 28 30 31 31 30 30 31 33 35 36 38 38 37 35 34 33 32 31 31 31 33 34 34 34 34 33 33 33 33 31 28 27 27 27 28 30 31 33 33 33 33 32 31 29
7 8 9 11 13 15 17 19 20 22 23 23 21 19 18 19 20 20 20 20 20 20 21 22 23 24 24 23 22 21 19 19 20 21 23 25 26 27 26 25 25 25 26 28 29 30 31 31 32 34 35 37 38 38 36 34 33 32 32 32 33 33 34 35 34 34 34 34 35 34 32 29 28 28 28 29 30 31 32 33 34 34 34 32 30
Wind_Direction
217 220 221 220 221 223 225 229 230 231 230 231 231 233 234 232 233 233 226 223 229 230 229 229 228 226 222 222 228 228 225 226 231 234 235 236 238 238 237 237 238 240 242 244 246 249 255 260 262 262 261 264 268 272 274 274 275 278 285 286 283 283 278 263 256 274 287 294 298 299 302 300 297 299 302 300 298 298 299 299 300 297 283 269 262
217 220 222 222 222 224 226 228 230 230 229 231 232 233 234 232 232 233 230 222 215 213 219 224 224 221 218 218 222 225 225 226 228 229 230 231 234 237 238 239 242 241 240 243 247 249 253 255 255 257 260 263 264 265 266 268 274 284 292 294 292 292 286 271 260 262 282 297 304 303 303 303 302 303 304 302 301 302 301 300 301 298 285 274 272
221 219 221 223 224 224 223 224 225 226 227 230 232 234 236 235 234 234 234 226 212 207 213 217 216 217 217 217 218 222 225 227 227 227 228 229 232 236 239 241 242 239 239 244 248 250 252 250 251 252 248 240 230 224 237 252 266 287 299 304 305 309 304 281 265 261 272 291 303 305 306 308 307 309 308 302 299 300 300 300 300 296 290 286 283
224 221 223 224 222 220 219 218 219 222 225 227 230 233 234 235 236 238 238 234 223 217 219 218 214 215 217 216 216 219 223 225 228 228 229 231 233 236 240 241 238 236 238 238 238 244 248 242 235 228 214 197 184 181 180 183 190 273 313 313 316 329 329 300 282 279 274 277 293 303 307 308 307 310 311 306 302 301 300 302 300 291 287 290 285
226 224 224 222 218 215 214 214 216 218 222 224 226 227 227 229 233 243 253 249 235 226 223 223 220 215 214 216 216 217 221 226 228 229 230 232 232 235 237 236 234 235 240 239 236 237 234 219 201 192 191 185 179 178 181 185 178 170 229 289 305 322 338 324 313 305 292 284 290 300 303 303 304 308 311 308 305 303 300 300 297 291 287 285 281
228 226 224 220 216 214 212 214 216 217 219 220 221 223 227 230 230 234 247 255 253 242 230 226 226 221 218 220 221 222 225 227 229 230 231 231 231 233 232 229 230 234 238 240 237 226 215 205 195 191 193 194 193 198 215 232 263 286 287 296 300 299 301 305 308 310 308 303 300 301 302 302 304 308 312 309 302 300 298 296 294 294 290 281 275
228 227 225 222 219 218 218 219 220 220 219 219 221 223 228 232 230 227 230 235 244 248 241 232 229 227 225 225 226 227 228 228 228 230 231 232 231 230 225 223 225 230 235 234 222 209 206 203 199 200 204 212 218 226 239 249 274 299 307 308 307 306 305 306 308 309 310 309 304 300 299 301 302 303 307 304 294 291 290 288 290 294 292 283 275
227 227 226 225 225 225 226 225 224 224 223 223 225 227 229 232 229 226 228 227 227 232 237 237 233 230 229 229 229 231 232 231 230 229 231 235 234 228 223 222 223 224 224 217 203 201 207 206 206 211 220 229 232 231 232 253 287 303 308 308 308 309 307 308 313 315 315 312 309 304 300 298 297 300 302 292 281 285 289 285 281 284 290 290 286
225 225 224 226 229 230 229 228 228 228 227 227 230 231 233 234 230 226 228 230 227 224 229 234 234 230 231 232 231 232 232 232 232 233 236 237 234 229 227 226 223 215 205 196 197 205 208 207 211 214 216 220 221 224 237 269 294 302 305 305 305 306 305 304 306 310 312 311 309 309 308 303 298 301 308 301 285 285 288 285 277 277 286 291 288
225 224 224 227 229 229 228 228 229 228 228 230 233 235 236 235 233 231 229 229 230 226 224 229 232 232 233 233 231 230 231 232 233 236 239 238 236 234 230 228 224 213 200 196 201 208 207 207 210 207 203 208 215 228 251 271 279 277 278 289 293 294 296 296 296 300 303 302 303 305 307 307 303 303 310 317 309 292 280 278 276 268 277 286 287
227 226 227 228 227 225 225 226 228 228 228 231 234 237 237 235 234 236 233 231 232 229 224 227 232 235 236 234 232 232 234 235 234 235 238 242 243 239 231 227 225 219 213 209 207 206 206 206 207 208 208 211 219 230 243 242 234 239 252 271 280 280 280 282 286 293 293 291 294 296 294 297 303 304 306 313 319 309 289 284 279 258 260 274 280
229 230 230 229 225 222 223 223 224 225 226 229 232 235 235 233 233 235 235 235 235 231 226 228 232 235 236 236 235 236 238 239 237 237 240 244 246 241 234 228 225 223 219 212 209 210 211 210 212 220 218 213 220 228 229 226 232 248 261 273 280 282 278 275 277 287 292 289 288 289 289 291 297 303 306 307 311 318 318 309 295 272 255 258 265
231 232 232 228 222 220 220 219 220 222 224 226 228 230 229 229 229 233 236 238 237 232 228 229 231 234 235 236 237 239 240 239 239 239 241 242 242 240 234 230 228 225 217 210 209 213 217 219 221 220 213 211 220 226 231 244 258 266 268 270 276 280 280 277 275 277 285 288 285 286 290 292 295 301 306 304 299 306 318 314 299 285 267 260 271
230 232 232 226 221 219 217 216 217 220 223 224 224 223 224 225 227 231 235 236 234 232 230 229 231 232 233 235 238 240 240 240 239 239 238 237 236 234 231 229 227 218 209 207 210 214 217 221 220 213 208 212 221 232 247 263 271 273 270 267 270 275 276 277 278 275 272 270 272 279 288 291 292 295 294 292 292 295 304 304 290 273 270 272 279
231 230 230 226 220 217 216 215 217 220 222 223 221 220 221 223 224 226 229 231 232 232 230 230 231 233 234 236 237 239 241 240 238 236 234 231 229 228 225 222 215 206 203 207 213 215 215 214 213 212 213 219 229 245 259 268 272 273 270 266 268 271 271 274 278 278 274 268 266 271 277 281 287 290 286 285 288 288 289 288 277 275 286 286 283
236 231 230 227 222 219 217 217 218 221 223 222 220 219 220 220 221 224 227 229 231 232 231 232 235 237 237 237 237 240 241 239 235 233 230 225 223 220 216 210 205 204 208 213 215 214 212 210 211 214 219 229 241 252 262 267 270 271 268 266 266 265 266 269 272 273 273 273 270 267 265 270 282 291 291 287 285 283 280 276 273 278 284 283 283
242 234 231 229 226 222 221 220 221 221 221 220 220 221 220 220 221 223 225 227 228 229 231 234 237 239 239 239 238 239 240 237 234 232 226 220 218 215 210 208 209 211 214 215 214 213 213 212 214 218 225 236 247 256 260 263 266 267 266 265 262 260 261 263 264 265 269 270 268 263 261 267 275 280 285 286 287 287 281 277 276 276 273 266 270
248 238 234 233 229 226 224 223 221 219 218 221 225 226 223 220 220 223 225 227 229 232 234 237 239 240 240 241 240 240 239 237 234 231 224 219 219 216 212 212 213 211 212 214 214 214 215 216 220 227 233 239 249 256 259 262 266 268 267 264 259 256 259 260 258 260 262 261 260 260 264 270 273 274 275 274 275 277 273 273 276 275 268 256 257
253 244 239 236 231 228 226 224 221 219 220 227 231 229 222 218 221 225 227 228 230 232 234 235 237 238 239 240 240 239 239 239 236 231 225 221 220 220 219 218 214 212 215 216 214 215 219 223 229 234 236 241 249 255 259 266 270 271 268 263 256 256 261 262 257 257 258 257 259 262 267 272 276 277 273 267 265 267 266 266 268 268 266 262 259
262 250 242 236 232 228 225 223 223 225 229 234 233 226 220 220 221 224 227 228 229 230 231 230 232 234 236 237 237 238 239 240 237 231 226 223 223 224 224 222 219 220 221 220 218 221 227 230 233 234 235 240 247 253 260 265 266 265 263 259 256 260 265 264 258 256 257 257 261 265 269 274 280 282 279 270 262 259 258 258 258 262 268 270 267
273 252 242 236 233 230 225 224 225 229 233 235 231 223 218 219 220 223 226 226 224 226 228 229 230 232 234 234 237 240 240 240 238 234 229 226 226 226 225 225 225 225 225 223 224 226 230 231 231 229 230 237 247 255 260 258 253 254 259 262 263 266 268 265 261 257 254 255 261 267 271 276 282 285 284 275 261 252 251 251 252 257 262 267 267
278 242 237 236 235 231 227 226 228 231 232 232 228 221 217 218 221 226 230 230 228 230 233 234 235 237 237 236 238 241 241 241 240 237 234 231 229 227 228 230 231 229 225 225 226 227 230 232 230 225 228 237 248 253 250 247 248 255 266 271 270 267 266 266 263 256 253 256 261 267 271 276 281 285 283 272 255 243 242 245 248 252 258 265 271
239 213 220 226 228 228 226 225 224 224 222 217 212 209 210 214 221 228 231 232 232 233 235 238 240 243 243 242 241 242 242 241 240 239 237 233 231 230 232 234 235 231 228 227 228 230 233 233 228 224 229 238 243 241 238 242 254 266 276 276 271 266 264 262 258 253 255 259 263 267 270 273 277 282 281 269 252 241 240 244 247 248 254 265 272
152 209 216 217 216 218 220 219 216 212 205 199 195 195 198 204 213 220 225 227 229 230 233 236 238 241 244 245 243 242 242 241 241 240 238 235 232 232 233 235 236 234 232 231 232 234 237 234 228 228 232 235 233 232 236 246 257 269 277 273 265 261 258 256 256 256 259 263 265 267 269 270 273 278 280 274 260 250 247 246 244 245 254 265 271
75 74 101 226 225 226 229 224 217 212 207 205 202 199 197 200 205 210 215 218 222 226 231 233 234 236 239 240 241 241 241 240 241 241 239 237 235 234 234 235 236 235 234 233 234 238 240 237 233 232 232 230 228 230 237 246 256 264 266 259 253 252 253 254 256 258 261 264 266 267 268 270 273 279 282 276 263 253 246 239 237 245 259 268 274
68 67 71 74 89 235 251 250 243 238 231 224 219 213 209 209 209 210 212 215 220 227 233 237 236 236 238 240 243 244 242 240 240 240 239 238 237 236 236 235 235 234 233 232 235 238 239 238 236 233 229 226 228 232 239 247 254 257 254 251 249 249 252 256 258 259 262 265 266 267 269 272 277 282 281 269 255 246 238 234 239 252 264 271 278
64 63 63 64 66 69 66 42 302 274 259 245 236 229 224 221 219 216 215 216 220 227 233 238 240 240 243 247 249 249 248 245 242 240 238 237 237 236 235 234 233 231 230 230 232 234 236 235 233 229 225 225 228 234 240 246 249 250 252 254 254 254 258 263 264 265 266 267 268 269 271 274 278 279 274 261 249 241 235 237 246 259 267 273 279
33 41 46 51 56 59 62 58 46 37 31 13 321 262 242 236 232 231 230 228 227 228 231 235 241 245 249 251 251 250 249 248 246 244 242 240 238 235 233 233 232 231 230 230 230 230 230 229 223 219 219 221 226 232 238 244 247 250 254 257 260 263 266 268 268 270 269 268 267 267 269 270 271 270 267 258 249 239 235 240 252 262 268 273 277
327 334 353 25 54 62 48 22 5 0 359 358 359 2 338 273 249 245 244 240 237 236 236 239 245 249 250 250 250 246 246 251 255 253 249 246 243 238 236 235 235 236 236 234 228 223 220 218 215 215 218 223 227 233 239 244 247 250 253 257 262 267 270 270 271 274 274 270 266 264 263 263 263 264 262 255 246 238 236 243 253 260 265 272 277
321 318 322 331 350 2 357 353 349 347 346 343 341 349 357 342 294 264 254 249 247 247 245 246 251 253 252 253 253 251 253 261 267 263 254 249 246 243 242 243 244 245 243 235 223 215 214 215 216 219 222 225 230 236 241 244 246 249 252 254 259 265 269 270 272 275 275 272 267 263 260 258 257 258 255 249 241 236 237 244 250 256 264 272 276
292 314 315 314 317 323 328 333 336 340 343 342 340 341 342 337 327 300 273 262 260 260 256 253 254 254 254 258 262 262 263 265 267 263 256 251 247 245 245 246 248 249 246 235 220 212 214 217 221 224 226 229 234 240 243 244 245 247 250 252 256 262 267 269 271 272 270 267 263 259 257 257 256 254 249 244 238 234 235 240 243 250 262 269 271
248 252 268 288 299 307 314 322 328 332 336 335 332 329 326 317 308 301 285 263 256 265 274 272 267 262 259 261 264 267 267 266 262 258 256 254 251 250 250 250 249 248 246 236 222 216 217 218 222 226 228 231 236 240 242 243 243 246 248 250 255 261 265 268 271 269 265 262 258 255 254 255 256 253 246 239 234 232 233 236 240 247 257 263 267
247 245 244 249 254 264 286 312 326 331 335 334 328 318 304 292 284 283 283 275 264 265 281 299 301 291 278 269 266 267 268 267 265 260 256 254 253 254 254 253 249 245 239 229 221 220 221 220 223 227 228 231 236 240 241 241 243 245 246 248 255 261 265 270 272 267 262 259 257 255 254 253 254 252 245 236 232 231 231 233 238 245 250 255 263
250 250 252 252 247 249 270 304 324 330 329 325 323 316 303 285 270 266 272 276 275 271 271 278 290 299 299 292 283 275 269 265 264 261 257 254 253 252 250 248 243 239 235 230 225 225 225 224 226 228 230 233 237 240 240 241 243 243 244 249 255 260 266 270 270 266 260 256 256 257 256 254 251 248 240 232 228 227 229 232 236 239 242 250 261
256 254 257 258 257 262 275 284 295 303 303 302 304 307 305 297 278 263 261 265 267 267 266 263 265 274 287 296 299 295 283 269 261 259 256 252 249 245 240 234 230 229 229 229 228 228 228 227 228 231 233 235 238 240 240 242 243 243 244 249 254 258 264 267 265 261 258 255 256 258 256 252 247 242 235 228 222 221 225 228 231 237 242 248 258
259 254 254 255 257 262 268 270 272 272 273 280 288 293 296 295 286 272 266 264 263 264 264 261 259 262 271 278 286 296 297 282 266 258 255 251 246 239 231 225 223 223 224 226 227 228 228 229 231 233 235 237 239 240 241 242 243 244 247 251 254 257 261 264 263 261 257 255 256 256 252 247 243 236 229 225 222 222 226 230 232 237 242 245 253
276 254 251 252 255 259 263 267 271 273 273 278 285 290 292 290 286 280 273 268 266 265 265 265 264 265 268 268 268 280 295 295 277 261 255 253 248 243 236 230 227 225 225 226 227 227 228 231 233 235 236 238 239 240 241 242 244 245 248 252 254 256 258 260 263 265 263 259 256 252 248 245 242 236 229 225 224 224 227 230 233 236 239 242 247
291 275 265 259 257 257 259 264 270 274 278 283 290 295 296 292 286 282 278 275 273 269 267 268 269 266 266 266 264 272 288 295 284 266 257 252 246 242 239 235 231 228 228 229 230 229 230 233 234 235 236 238 239 240 240 242 243 245 247 252 255 256 256 256 259 263 265 262 257 252 248 246 242 237 231 228 227 226 227 229 231 233 233 234 237
284 285 282 274 267 263 265 270 274 278 283 289 296 302 302 298 292 286 282 279 276 272 270 271 271 270 269 268 266 270 278 281 276 265 257 250 244 241 238 235 231 229 230 232 232 232 232 233 235 236 236 236 238 239 240 241 243 244 247 251 253 254 254 254 255 259 261 259 253 250 250 248 244 239 235 232 230 228 227 227 229 230 230 230 233
287 289 288 288 285 285 287 287 287 289 293 299 305 307 307 304 299 293 289 284 280 278 275 272 272 276 276 270 265 263 262 263 267 266 257 248 243 241 238 234 232 231 232 232 232 232 233 234 235 236 236 237 238 239 240 241 242 244 246 249 251 254 255 254 253 256 258 256 251 249 251 251 245 239 236 233 232 230 229 228 229 230 231 231 233
301 299 298 298 297 299 301 298 296 298 302 304 306 304 302 301 300 296 292 288 285 285 282 276 276 280 278 270 263 259 253 251 262 268 263 254 247 242 238 236 235 233 233 233 232 232 233 235 236 237 237 238 239 239 240 241 241 242 244 248 251 253 255 253 251 252 256 256 252 250 252 250 242 235 234 233 232 230 230 229 230 230 230 229 231
304 301 301 300 295 290 292 295 297 299 300 300 300 299 297 297 296 293 289 289 290 289 286 283 283 283 280 271 263 258 254 252 257 262 263 260 253 246 242 239 237 235 235 235 235 235 235 236 237 238 238 239 240 241 240 240 240 240 243 247 250 251 251 250 249 251 253 253 250 250 250 246 237 232 233 234 232 229 227 228 229 228 226 225 225
301 300 299 298 292 286 288 294 297 299 299 299 300 300 299 296 293 289 286 287 290 292 290 289 289 288 284 276 264 254 254 255 252 252 258 261 257 252 249 245 242 240 238 238 238 238 238 238 239 240 241 243 245 245 244 244 243 242 243 246 248 248 249 250 251 251 252 251 250 250 248 239 230 228 231 232 230 228 226 226 226 225 222 221 221
296 298 297 294 293 292 293 296 298 300 302 303 302 302 301 299 294 289 286 286 291 295 295 294 293 290 287 281 269 255 252 252 247 249 259 263 260 258 256 252 248 245 242 241 240 239 239 240 241 242 244 247 249 249 248 248 247 245 244 245 246 247 249 252 254 255 255 252 250 249 245 234 227 226 229 229 228 225 223 223 223 221 218 216 216
286 290 290 290 293 297 299 301 302 302 302 302 301 301 301 300 296 292 289 290 294 297 298 298 296 292 288 284 276 266 261 258 253 251 255 258 259 260 260 256 252 249 247 245 244 241 240 241 242 242 244 247 248 248 248 248 247 246 244 243 244 247 251 253 256 258 259 255 250 247 242 233 227 226 227 227 225 223 222 222 222 218 214 213 214
269 279 287 291 295 300 305 307 307 306 304 301 298 297 296 295 294 294 293 294 295 297 298 299 298 294 290 286 283 277 272 270 266 263 261 261 264 266 264 259 255 252 251 250 248 244 241 241 242 242 244 246 247 246 246 246 246 246 244 242 243 248 252 253 255 258 259 255 248 243 238 232 228 228 228 227 224 222 222 221 220 217 215 214 214
273 281 288 295 300 306 310 311 311 309 308 306 302 297 293 291 292 293 294 295 296 298 299 300 299 297 294 291 288 284 278 275 276 276 275 274 276 275 269 261 256 255 255 254 252 248 244 243 242 242 244 245 245 245 245 245 245 245 245 244 245 247 250 252 255 258 259 255 246 239 234 230 228 228 228 226 222 220 219 219 220 218 216 215 215
271 278 287 297 304 308 311 312 310 309 309 309 308 303 296 292 292 293 294 296 298 300 302 302 301 299 297 295 294 290 283 278 277 277 277 278 280 281 277 268 261 258 258 256 254 251 248 246 245 244 245 245 245 245 246 247 246 245 245 243 242 243 245 249 254 258 258 253 243 236 231 228 227 229 228 225 222 219 218 219 219 217 215 214 215
264 274 287 300 306 310 312 312 310 308 308 308 308 304 298 293 292 294 296 297 299 302 303 303 302 300 299 298 297 295 291 286 281 277 275 275 275 276 277 275 269 263 259 257 257 256 254 252 250 249 248 247 247 247 248 248 248 247 246 243 242 241 242 246 252 256 254 248 238 230 227 226 228 229 228 226 223 221 220 220 220 216 213 212 212
272 283 294 302 308 312 314 314 312 310 310 309 306 299 293 291 292 296 300 301 301 303 305 305 304 303 301 299 298 297 298 299 295 286 280 276 273 272 273 275 274 269 264 261 260 260 259 257 255 254 253 252 250 249 249 250 249 249 248 247 245 243 243 246 250 253 251 244 234 227 224 224 225 226 226 225 223 221 219 220 218 214 211 210 211
288 295 300 306 312 316 317 316 313 310 310 310 303 292 288 292 297 302 305 305 304 305 308 310 310 307 304 300 297 296 297 303 307 303 294 285 279 277 274 270 268 268 267 265 263 262 260 258 257 257 257 256 253 251 251 252 253 252 251 249 247 246 245 246 248 250 249 241 232 225 223 223 223 223 223 222 221 220 220 220 219 214 211 211 211
Height
774 776 777 779 780 781 783 784 785 786 787 788 789 790 791 793 793 794 796 800 802 800 799 798 799 802 803 804 804 806 808 810 811 813 813 814 814 814 815 816 817 818 819 820 820 821 822 822 822 822 823 823 823 824 824 824 824 824 824 824 824 825 825 825 825 824 823 822 821 820 821 820 819 819 819 818 818 817 816 816 815 815 815 815 815
772 774 776 777 778 779 781 782 784 785 785 786 787 788 789 790 791 792 794 798 800 800 800 798 799 800 802 803 804 805 806 808 810 811 812 812 813 814 814 815 816 817 818 819 820 820 821 821 821 822 822 823 823 824 824 824 824 824 824 823 823 823 823 824 824 823 822 821 819 819 819 819 818 818 818 817 816 816 815 814 814 814 814 814 815
770 772 773 775 776 778 779 781 782 783 784 785 785 786 787 789 790 790 791 793 795 797 798 798 798 799 801 802 803 805 806 807 808 809 810 811 811 812 813 814 815 816 817 818 819 819 819 819 819 820 821 821 822 822 823 823 823 823 823 823 823 822 822 822 822 822 821 820 819 817 818 818 817 816 816 816 815 815 814 813 813 813 813 814 814
768 770 771 773 774 776 778 779 781 781 782 783 783 785 786 788 789 790 790 790 792 794 795 796 797 798 799 801 802 804 805 806 807 808 808 809 809 810 812 813 814 815 815 815 815 816 817 818 819 819 820 820 821 821 822 822 822 823 822 822 822 822 822 822 821 821 820 819 818 817 816 816 815 815 815 815 814 814 813 813 812 812 813 813 812
766 768 769 771 773 774 776 778 779 779 780 781 782 783 784 785 787 789 792 792 791 791 792 794 795 796 798 799 801 802 804 805 806 806 807 807 808 809 811 812 812 813 813 813 814 815 816 817 818 819 819 820 820 820 821 821 821 822 822 822 821 821 821 821 820 820 819 818 817 816 815 814 814 814 814 813 813 813 812 812 812 811 811 811 810
764 765 767 769 771 772 774 775 776 777 778 779 780 782 783 783 784 786 789 792 794 793 792 792 794 795 797 798 800 801 802 803 804 805 805 806 807 808 809 810 810 811 812 813 813 814 815 816 817 818 818 819 820 820 820 820 820 821 821 821 821 820 820 820 819 819 818 817 816 816 815 813 813 813 813 813 812 811 811 811 810 810 810 809 808
762 763 765 766 768 770 771 772 774 775 776 777 778 779 781 782 782 783 784 786 790 793 793 792 793 794 796 797 798 799 800 801 802 803 804 804 804 805 805 806 807 809 810 811 812 813 814 815 815 816 817 818 819 819 819 820 820 820 820 820 820 819 819 819 818 817 817 816 815 815 814 813 812 812 812 812 811 811 810 809 809 808 808 807 807
759 761 763 764 766 767 768 770 771 773 774 775 776 777 778 779 779 780 782 782 783 785 789 791 791 793 794 796 797 798 799 799 800 800 801 802 802 802 803 804 804 806 807 809 811 813 813 813 814 815 817 817 818 818 818 819 819 819 820 819 819 819 818 818 817 816 816 815 814 814 813 813 812 811 811 811 810 810 809 809 808 807 806 805 805
757 759 761 762 763 764 766 768 769 770 772 772 773 774 775 776 777 777 779 780 781 782 785 788 790 791 792 793 795 796 796 797 797 798 799 799 800 801 803 804 803 803 805 808 811 812 812 813 813 814 815 816 816 817 817 818 818 819 819 819 819 818 818 817 817 816 815 814 813 813 812 812 811 811 810 810 810 809 808 808 807 806 805 804 804
755 757 758 759 760 762 764 766 767 768 769 769 771 772 773 774 775 776 777 779 780 781 783 786 787 789 790 791 793 794 794 795 795 796 797 797 798 799 801 803 803 801 802 806 810 810 810 811 812 812 813 814 815 815 816 817 817 817 818 818 818 818 817 816 816 815 814 813 813 812 812 811 810 810 810 809 809 808 807 807 806 806 805 803 802
753 754 755 756 758 760 762 763 764 765 766 767 768 769 771 772 773 775 776 778 779 780 781 783 785 786 788 789 790 791 792 793 794 794 795 795 796 797 798 799 800 800 800 803 807 808 808 809 810 811 811 812 813 814 815 815 816 816 817 817 817 816 815 815 814 814 813 813 812 812 811 810 810 809 809 808 808 807 806 806 805 805 804 803 802
751 751 752 753 756 757 759 760 762 763 763 765 766 767 769 771 772 774 775 776 777 779 780 781 782 784 785 787 788 789 790 790 791 792 792 793 794 795 795 796 797 798 799 801 804 806 808 808 808 809 810 810 812 812 813 814 814 815 815 815 815 814 814 813 813 812 812 812 811 811 810 810 809 808 808 808 807 806 806 805 805 804 804 803 802
748 749 749 751 753 754 757 758 759 760 761 762 764 766 767 769 770 772 773 774 775 776 777 779 780 781 783 784 785 786 787 788 788 789 789 790 792 793 794 794 795 796 797 799 802 804 806 807 807 808 808 809 810 811 812 813 813 813 813 813 813 812 812 812 811 811 811 810 810 810 809 809 808 807 807 807 807 806 805 805 804 804 804 803 802
745 746 746 748 750 752 754 755 756 758 759 761 762 764 765 766 768 770 771 771 772 773 774 776 777 779 780 781 782 783 784 785 785 786 787 788 789 790 791 792 793 794 796 797 799 801 803 805 805 806 807 808 809 810 810 811 811 811 811 811 811 811 811 810 810 810 809 809 808 808 808 808 807 806 806 806 805 805 805 804 804 803 803 803 802
742 743 744 745 747 749 750 752 754 755 757 759 760 762 763 764 766 767 768 768 769 770 772 773 775 776 777 777 778 779 780 782 783 783 784 785 787 788 789 791 792 793 794 795 797 799 801 802 803 804 805 806 807 808 809 809 809 809 809 809 809 809 809 809 808 808 808 807 806 806 806 806 806 805 805 804 804 804 804 804 803 803 803 802 801
738 739 740 742 744 746 747 749 751 753 755 757 758 760 761 762 764 765 766 766 767 768 770 771 772 773 773 774 775 776 777 779 780 781 782 783 785 786 787 789 790 791 792 793 796 798 799 800 801 802 803 804 805 806 807 807 807 808 807 807 807 807 806 806 806 806 806 805 805 804 804 804 804 804 803 803 802 802 802 802 802 802 802 801 800
735 736 737 738 740 742 744 747 748 751 753 755 756 757 758 760 762 764 764 765 765 766 767 767 768 770 771 772 773 773 775 777 778 779 780 781 783 784 786 787 788 789 790 792 794 796 797 797 798 800 801 802 804 804 805 805 805 806 805 805 805 804 804 804 804 804 804 803 803 803 802 802 802 802 802 802 801 801 801 800 800 800 800 800 798
732 733 734 735 737 739 741 744 746 748 750 752 753 754 756 758 760 761 761 761 762 763 764 765 767 768 769 770 771 772 772 774 775 776 777 779 780 782 784 785 786 787 788 790 792 793 794 795 796 797 799 800 802 802 803 803 803 803 803 803 803 802 802 802 802 802 802 802 801 801 801 801 800 800 800 800 800 800 799 798 798 798 798 798 797
730 730 731 732 734 737 739 741 744 746 748 749 751 753 755 756 757 757 757 757 759 760 762 764 765 766 767 768 768 769 769 770 771 773 774 776 777 779 781 783 784 785 785 787 789 790 792 793 794 795 796 798 799 800 801 801 801 801 801 801 800 800 799 800 800 800 800 800 800 800 799 799 798 798 797 797 797 797 796 796 796 796 796 796 796
727 728 729 731 733 735 737 739 741 744 745 747 749 751 753 753 753 754 754 755 757 759 760 761 761 762 763 764 765 766 766 767 768 770 772 773 775 777 778 779 781 782 782 784 786 788 789 790 791 793 794 796 797 798 799 799 799 799 799 799 798 797 797 798 798 798 798 798 798 798 798 797 797 796 795 794 794 794 793 793 794 794 794 794 794
726 727 728 729 732 733 735 738 739 741 743 745 747 749 750 751 751 751 752 753 755 756 757 757 757 757 758 760 761 763 763 764 766 768 770 771 772 774 775 776 777 778 780 781 783 785 786 787 788 790 792 793 795 795 796 797 797 797 797 797 797 796 796 796 796 796 796 796 796 796 796 796 795 794 793 792 791 791 791 791 792 792 792 792 792
726 727 727 728 729 731 733 735 737 739 741 743 745 747 747 748 749 749 750 751 752 753 753 754 754 754 755 756 758 759 760 762 763 766 767 769 770 771 772 773 774 776 777 779 780 781 783 784 785 787 789 791 792 793 794 795 795 795 795 795 795 795 795 795 795 795 795 794 794 794 794 793 793 792 791 790 789 789 789 789 790 790 790 790 790
727 727 727 727 728 729 731 733 735 737 739 741 743 744 745 746 747 747 748 749 749 750 751 751 752 752 753 754 755 756 758 759 760 762 764 766 767 769 769 771 772 773 774 775 777 778 780 781 783 785 787 788 790 791 792 792 793 793 793 794 794 794 794 793 793 793 793 793 792 792 791 791 791 789 788 788 787 788 788 788 788 788 788 788 788
726 727 727 727 728 729 730 732 734 736 738 740 742 743 744 745 745 746 746 746 747 747 748 749 749 750 751 752 752 754 755 756 757 758 760 762 764 766 767 768 769 770 771 772 774 776 777 779 781 782 784 786 788 789 789 790 791 791 792 792 792 792 792 792 792 792 791 791 791 790 789 789 788 787 786 786 786 786 786 787 787 787 787 787 787
726 726 726 726 727 729 730 731 733 735 736 738 739 740 742 742 743 744 744 744 745 745 745 746 747 747 748 749 749 750 752 753 754 755 756 758 760 762 764 766 767 767 768 769 772 773 775 777 778 780 782 784 785 786 787 788 788 789 790 790 790 790 790 790 790 790 789 789 788 787 787 786 786 785 784 784 784 784 784 785 786 786 786 785 785
727 727 727 727 727 728 729 731 732 733 735 736 737 738 739 740 740 741 742 742 743 743 744 744 745 745 746 746 746 747 748 750 751 752 754 755 757 759 761 762 764 765 766 767 769 771 773 775 776 778 779 781 782 783 784 785 786 787 787 788 788 788 787 787 787 787 786 786 785 785 784 784 783 783 782 782 782 782 783 784 784 784 784 784 783
727 727 727 728 728 729 730 731 732 733 734 735 737 738 738 739 739 739 740 741 742 742 742 742 743 743 743 742 743 743 745 746 747 749 750 751 753 755 757 759 761 762 763 764 766 768 770 772 774 775 777 779 780 781 782 783 783 784 784 785 785 785 785 784 784 784 783 783 782 782 782 782 781 781 780 780 780 781 782 783 783 783 783 782 781
727 727 728 728 729 729 730 731 732 733 734 735 736 737 737 738 738 738 738 738 739 739 740 740 740 740 740 740 740 740 741 742 743 744 745 747 748 751 753 755 757 757 758 760 762 765 767 769 771 773 775 776 777 778 779 780 780 781 782 782 782 782 782 782 781 780 780 780 780 779 779 779 779 779 779 779 779 780 781 781 781 781 781 781 780
725 726 727 728 729 729 730 731 731 732 733 734 735 736 737 737 737 736 737 737 736 736 737 737 737 737 737 737 738 738 738 737 738 739 741 743 745 747 749 751 752 753 754 756 758 761 763 766 768 770 771 772 773 774 775 776 777 778 778 779 779 779 779 779 778 777 777 777 777 777 777 777 777 777 778 778 778 779 779 780 780 780 779 779 778
725 725 726 727 728 729 730 730 731 731 732 733 734 735 735 736 735 735 735 735 735 735 736 735 736 736 736 736 736 736 735 735 735 737 739 740 742 743 745 747 748 749 750 752 755 758 760 762 764 765 767 768 769 770 771 772 773 774 775 775 776 776 775 775 775 774 774 774 774 774 774 775 775 776 776 776 776 777 778 778 778 778 778 777 776
726 726 726 726 727 727 728 729 729 730 730 731 732 732 733 734 734 734 733 733 734 735 735 735 735 736 736 736 735 735 734 734 735 736 737 738 739 741 742 744 745 746 747 749 752 755 757 759 760 761 763 764 765 766 767 768 769 770 771 771 772 772 772 772 772 772 771 771 771 772 772 772 773 773 774 774 774 775 776 776 776 776 775 775 775
726 726 727 727 727 727 728 728 728 728 729 729 730 731 731 732 733 733 733 732 732 733 734 734 734 734 734 733 734 733 733 733 733 734 734 736 737 738 740 741 742 744 745 746 748 750 752 754 755 757 758 760 760 761 762 764 765 766 766 767 768 768 769 769 768 768 768 768 768 769 769 770 770 770 771 772 772 773 773 774 774 774 773 773 773
724 725 725 726 726 727 727 728 728 728 728 728 729 730 730 731 731 731 731 730 730 730 730 730 731 731 731 730 731 731 730 731 732 732 732 733 734 735 737 738 740 742 743 744 745 747 748 750 751 752 753 754 755 756 758 759 760 761 762 763 764 764 765 765 765 765 765 765 765 765 766 767 767 768 768 769 770 770 771 771 771 771 771 771 770
722 723 724 724 725 726 726 727 727 727 727 728 728 728 729 729 729 729 728 728 727 727 727 727 727 728 728 727 728 728 728 729 730 730 730 730 731 733 735 737 738 739 740 741 742 743 744 745 746 747 749 750 751 752 754 755 756 757 758 759 759 760 761 761 761 761 761 761 762 762 763 763 764 765 765 766 767 768 768 769 769 769 769 769 768
721 722 723 723 724 724 725 725 725 726 726 726 726 727 727 727 728 727 727 726 725 724 723 723 724 724 725 724 724 725 726 727 727 728 728 728 729 731 733 735 736 736 737 738 739 740 740 741 742 743 744 745 746 748 749 750 752 753 754 755 755 756 757 757 758 758 758 758 759 759 759 760 761 761 762 763 764 764 765 766 766 766 766 766 766
720 721 722 722 722 722 722 722 722 723 723 724 724 725 725 725 725 725 725 724 724 722 721 720 720 721 721 721 721 723 724 724 724 725 725 726 727 729 730 731 732 732 733 733 734 735 736 737 737 738 739 741 742 743 744 746 747 748 749 750 751 752 753 753 754 755 755 755 756 756 756 757 757 758 759 760 760 761 762 763 763 764 764 764 764
719 720 720 720 720 720 720 720 720 720 721 721 722 722 722 722 722 722 722 722 721 721 720 719 719 718 717 717 718 720 721 722 721 721 721 723 725 726 726 726 728 728 728 729 730 731 732 732 733 734 735 736 737 738 740 741 743 744 745 746 747 748 749 750 750 751 752 752 752 753 753 754 754 755 756 757 757 758 759 760 761 761 762 762 762
718 718 719 719 719 719 719 719 719 719 719 719 720 720 719 719 720 720 720 719 719 719 718 718 717 716 715 714 714 716 718 719 718 717 717 718 719 720 720 721 723 723 723 724 725 726 726 727 728 729 730 731 732 734 735 737 738 740 741 742 743 744 745 746 747 748 748 748 749 749 750 751 751 752 753 753 754 755 756 757 758 758 759 760 760
717 717 718 717 717 717 717 717 717 717 717 717 717 717 717 717 717 717 717 717 717 716 716 716 715 714 713 713 712 713 715 716 715 714 714 714 714 714 714 716 717 718 718 719 720 721 721 722 723 724 725 727 728 729 731 732 734 735 737 738 739 740 741 742 743 744 744 745 746 746 747 747 748 749 750 750 751 752 753 754 755 756 756 757 757
717 717 716 716 715 715 715 714 714 715 715 715 715 715 715 715 715 715 715 715 714 714 714 713 712 711 711 711 710 710 711 712 713 712 712 711 711 711 710 711 712 712 713 714 715 716 716 717 718 720 721 722 724 725 726 728 729 731 733 734 735 736 737 738 739 740 741 742 742 743 744 744 745 746 746 747 748 749 750 751 752 752 753 754 755
715 715 714 714 714 713 713 713 713 713 713 713 713 714 714 714 713 713 713 712 712 711 711 711 710 709 709 709 708 707 707 708 710 709 708 708 708 708 707 707 707 707 708 709 710 711 712 712 714 715 716 718 719 721 722 724 725 727 729 730 731 732 733 734 735 736 737 738 739 739 740 741 742 743 743 744 745 746 747 748 749 750 751 752 753
713 713 712 712 712 712 712 712 712 712 712 712 712 712 712 712 711 711 711 710 709 709 708 708 707 707 706 706 706 705 704 704 705 706 705 705 705 705 704 704 703 703 703 704 705 706 707 708 709 710 712 713 715 716 718 719 721 723 724 726 727 728 729 730 731 732 733 734 735 736 736 737 738 739 740 741 742 743 744 745 747 748 749 750 751
711 711 711 711 711 711 710 710 710 710 710 710 710 710 710 709 709 709 708 708 707 707 706 705 704 704 703 704 704 703 701 700 701 702 703 702 702 701 701 701 700 700 700 700 701 702 703 704 705 706 707 709 710 712 713 714 716 718 720 721 722 723 724 726 727 728 729 730 731 732 733 733 734 736 737 738 739 740 742 743 744 745 746 748 749
709 709 709 709 709 709 709 709 709 709 709 708 708 708 707 707 707 707 706 706 705 704 704 703 702 701 701 700 700 700 699 698 698 699 699 698 697 697 697 696 697 697 697 697 698 699 700 700 701 702 703 705 707 708 709 710 712 714 715 717 718 719 720 721 722 724 725 726 727 728 729 730 731 732 733 735 736 737 739 740 741 742 744 745 747
707 708 708 708 708 708 708 708 708 707 707 706 706 705 705 705 704 704 704 703 703 702 701 700 699 698 698 697 696 696 696 695 695 695 694 693 692 691 691 691 692 692 693 693 694 695 696 696 697 698 700 701 702 703 705 706 707 709 711 712 714 715 716 717 718 719 720 721 722 724 725 726 727 728 730 731 732 734 735 737 738 740 741 743 744
706 706 706 706 707 706 706 706 706 705 705 704 704 703 702 702 702 701 701 700 700 699 698 697 697 696 695 694 694 693 693 692 691 690 689 688 688 687 686 686 687 687 688 688 690 691 692 692 693 694 695 696 697 698 700 701 702 704 706 708 709 710 711 713 714 715 716 717 718 719 721 722 723 725 726 727 729 730 732 733 735 736 738 739 741
705 705 705 705 705 705 704 704 704 703 703 702 701 701 700 699 699 698 698 697 697 696 696 695 694 693 692 691 691 690 689 687 686 685 684 683 683 683 682 682 683 683 683 684 685 686 687 688 689 690 691 691 692 694 695 696 698 699 700 702 704 705 707 708 709 710 711 712 713 715 717 719 720 721 722 724 725 727 728 730 732 733 735 737 738
704 704 704 704 704 703 703 702 702 701 701 700 699 698 697 697 696 696 695 695 694 693 693 692 691 690 689 688 688 687 686 684 683 682 681 680 679 679 679 679 680 680 680 680 680 681 682 683 685 686 686 687 688 689 690 692 693 694 696 697 699 700 702 703 705 706 707 708 709 711 713 715 716 717 719 720 722 723 725 727 728 730 732 734 736
703 703 702 702 702 702 701 701 700 699 699 698 697 696 695 694 694 693 692 692 691 690 690 689 688 687 687 685 685 684 683 682 681 680 679 677 677 676 676 676 676 676 676 676 676 676 677 678 680 681 682 683 684 685 686 687 688 690 691 693 694 695 697 699 700 702 703 704 706 708 709 711 712 714 715 716 718 720 722 723 725 727 729 731 733
701 701 701 701 700 700 700 699 698 697 697 696 695 694 693 692 692 691 690 689 689 688 687 686 685 685 684 683 682 681 680 679 678 677 676 675 674 674 673 673 673 673 673 672 672 672 673 674 675 676 677 678 679 680 681 682 684 685 686 688 689 691 692 694 695 697 699 701 702 704 705 707 708 710 711 713 714 716 718 720 722 724 726 728 730
700 700 699 699 699 698 697 697 696 695 694 693 693 692 691 690 689 689 688 688 686 685 684 683 682 682 681 680 680 679 678 677 676 675 673 672 672 671 670 670 669 669 669 669 668 669 669 669 670 672 673 674 675 676 677 678 679 680 681 683 684 686 688 689 691 692 694 696 698 700 701 703 704 706 707 709 710 712 714 716 718 720 722 724 727